Location: Darmstadt
(49.8706°N, 8.6494°E)
Time: 07:11:31
(UTC+01:00)

In-Cosmos 22 Rocket - Pass Details

Date: 31 October 2020
Orbit: 791 x 888 km, 81.2° (Epoch: 03 December)

Event Time Altitude Azimuth Distance (km) Brightness Sun altitude
Rises 18:00:46 0° 348° (NNW) 3,316 7.3 -9.7°
Reaches altitude 10° 18:03:08 10° 349° (N) 2,390 6.6 -10.0°
Maximum altitude 18:08:33 83° 78° (ENE) 826 4.1 -10.9°
Drops below altitude 10° 18:14:03 10° 167° (SSE) 2,428 6.5 -11.8°
Sets 18:16:28 0° 168° (SSE) 3,372 7.3 -12.2°
